When you browse on this site, cookies collect data to enhance your experience and personalize the content and advertising you see.
Visit our Privacy Policy to learn more. By continuing to use the site, you agree to this use of cookies and data.
  • In Denmark
  • List of Countries
  • For 7 days
  • Water Temperature
  • Satellite Maps
  • Weather Map
  • Weather Widgets
  • user-avatar
    Login

    Hourly Weather Newcastle

    Today, 26 May, Sunday

    Time Temperature Precipitation Wind Pressure Humidity
    00:00 +11°C° 0 mm 3 mps 748 mmHg 96%
    01:00 +12°C° 0 mm 3 mps 747 mmHg 96%
    02:00 +12°C° 0 mm 3 mps 747 mmHg 96%
    03:00 +12°C° 0 mm 4 mps 746 mmHg 96%
    04:00 +13°C° 0.1 mm 4 mps 746 mmHg 95%
    05:00 +13°C° 0.1 mm 4 mps 746 mmHg 93%
    06:00 +14°C° 0 mm 5 mps 745 mmHg 93%
    07:00 +14°C° 0.3 mm 5 mps 745 mmHg 93%
    08:00 +14°C° 0.3 mm 5 mps 745 mmHg 93%
    09:00 +14°C° 0.3 mm 6 mps 744 mmHg 93%
    10:00 +14°C° 0.2 mm 6 mps 744 mmHg 91%
    11:00 +15°C° 0.2 mm 6 mps 744 mmHg 90%
    12:00 +15°C° 0.2 mm 7 mps 744 mmHg 88%
    13:00 +15°C° 0.1 mm 7 mps 745 mmHg 83%
    14:00 +15°C° 0.1 mm 7 mps 745 mmHg 79%
    15:00 +15°C° 0.1 mm 7 mps 745 mmHg 75%
    16:00 +14°C° 0 mm 7 mps 745 mmHg 75%
    17:00 +13°C° 0 mm 6 mps 745 mmHg 75%
    18:00 +13°C° 0 mm 6 mps 745 mmHg 76%
    19:00 +10°C° 0 mm 5 mps 745 mmHg 79%
    20:00 +10°C° 0 mm 4 mps 745 mmHg 82%
    21:00 +8°C° 0 mm 4 mps 745 mmHg 85%
    22:00 +7°C° 0 mm 4 mps 745 mmHg 88%
    23:00 +7°C° 0 mm 4 mps 745 mmHg 90%

    Tomorrow, 27 May, Monday

    Time Temperature Precipitation Wind Pressure Humidity
    00:00 +7°C° 0 mm 3 mps 745 mmHg 93%
    01:00 +7°C° 0 mm 3 mps 745 mmHg 94%
    02:00 +7°C° 0 mm 3 mps 744 mmHg 94%
    03:00 +7°C° 0 mm 3 mps 744 mmHg 95%
    04:00 +7°C° 0 mm 4 mps 744 mmHg 93%
    05:00 +8°C° 0 mm 4 mps 744 mmHg 90%
    06:00 +10°C° 0 mm 4 mps 744 mmHg 88%
    07:00 +9°C° 0.3 mm 5 mps 744 mmHg 87%
    08:00 +10°C° 0.3 mm 5 mps 744 mmHg 86%
    09:00 +10°C° 0.3 mm 6 mps 744 mmHg 84%
    10:00 +11°C° 0.3 mm 6 mps 744 mmHg 82%
    11:00 +13°C° 0.3 mm 6 mps 743 mmHg 79%
    12:00 +13°C° 0.3 mm 6 mps 743 mmHg 76%
    13:00 +13°C° 0.4 mm 6 mps 743 mmHg 75%
    14:00 +13°C° 0.4 mm 6 mps 743 mmHg 75%
    15:00 +13°C° 0.4 mm 6 mps 743 mmHg 74%
    16:00 +13°C° 0.3 mm 5 mps 743 mmHg 76%
    17:00 +13°C° 0.3 mm 5 mps 743 mmHg 78%
    18:00 +12°C° 0.3 mm 5 mps 742 mmHg 81%
    19:00 +11°C° 0.1 mm 4 mps 742 mmHg 84%
    20:00 +10°C° 0.1 mm 3 mps 742 mmHg 88%
    21:00 +8°C° 0.1 mm 3 mps 742 mmHg 92%
    22:00 +8°C° 0 mm 3 mps 742 mmHg 93%
    23:00 +7°C° 0 mm 3 mps 742 mmHg 94%

    Day after tomorrow, 28 May, Tuesday

    Time Temperature Precipitation Wind Pressure Humidity
    00:00 +5°C° 0 mm 3 mps 742 mmHg 95%
    01:00 +5°C° 0 mm 3 mps 742 mmHg 95%
    02:00 +6°C° 0 mm 2 mps 742 mmHg 96%
    03:00 +6°C° 0 mm 2 mps 741 mmHg 96%
    04:00 +6°C° 0 mm 2 mps 742 mmHg 95%
    05:00 +7°C° 0 mm 2 mps 742 mmHg 93%
    06:00 +8°C° 0 mm 2 mps 742 mmHg 92%
    07:00 +9°C° 0.1 mm 2 mps 742 mmHg 88%
    08:00 +11°C° 0.1 mm 3 mps 743 mmHg 83%
    09:00 +12°C° 0.1 mm 4 mps 744 mmHg 79%
    10:00 +13°C° 0.6 mm 4 mps 744 mmHg 78%
    11:00 +13°C° 0.6 mm 5 mps 745 mmHg 77%
    12:00 +14°C° 0.6 mm 5 mps 745 mmHg 76%
    13:00 +13°C° 0.5 mm 5 mps 746 mmHg 76%
    14:00 +13°C° 0.5 mm 5 mps 746 mmHg 76%
    15:00 +13°C° 0.5 mm 5 mps 746 mmHg 76%
    16:00 +12°C° 0.1 mm 4 mps 747 mmHg 77%
    17:00 +12°C° 0.1 mm 3 mps 747 mmHg 77%
    18:00 +12°C° 0.1 mm 3 mps 748 mmHg 78%
    19:00 +12°C° 0.1 mm 2 mps 748 mmHg 81%
    20:00 +10°C° 0.1 mm 2 mps 749 mmHg 84%
    21:00 +9°C° 0.1 mm 2 mps 750 mmHg 88%
    22:00 +9°C° 0.1 mm 1 mps 750 mmHg 88%
    23:00 +9°C° 0.1 mm 1 mps 750 mmHg 89%

    29 May, Wednesday

    Time Temperature Precipitation Wind Pressure Humidity
    00:00 +9°C° 0.1 mm 1 mps 751 mmHg 90%
    01:00 +8°C° 0 mm 1 mps 751 mmHg 91%
    02:00 +8°C° 0 mm 1 mps 751 mmHg 91%
    03:00 +8°C° 0 mm 1 mps 751 mmHg 92%
    04:00 +8°C° 0 mm 1 mps 751 mmHg 91%
    05:00 +9°C° 0 mm 1 mps 751 mmHg 89%
    06:00 +9°C° 0 mm 1 mps 751 mmHg 88%
    07:00 +9°C° 0 mm 2 mps 751 mmHg 82%
    08:00 +10°C° 0 mm 2 mps 751 mmHg 75%
    09:00 +12°C° 0 mm 2 mps 751 mmHg 69%
    10:00 +12°C° 0 mm 3 mps 751 mmHg 66%
    11:00 +13°C° 0 mm 3 mps 751 mmHg 63%
    12:00 +14°C° 0 mm 3 mps 751 mmHg 60%
    13:00 +13°C° 0.1 mm 3 mps 750 mmHg 67%
    14:00 +12°C° 0.1 mm 3 mps 750 mmHg 73%
    15:00 +12°C° 0.1 mm 3 mps 750 mmHg 80%
    16:00 +11°C° 0.5 mm 3 mps 749 mmHg 84%
    17:00 +11°C° 0.5 mm 3 mps 749 mmHg 89%
    18:00 +10°C° 0.5 mm 4 mps 748 mmHg 94%
    19:00 +11°C° 0.8 mm 4 mps 748 mmHg 94%
    20:00 +10°C° 0.8 mm 5 mps 748 mmHg 95%
    21:00 +12°C° 0.8 mm 5 mps 748 mmHg 96%
    22:00 +11°C° 0.2 mm 6 mps 747 mmHg 95%
    23:00 +11°C° 0.2 mm 6 mps 747 mmHg 95%

    30 May, Thursday

    Time Temperature Precipitation Wind Pressure Humidity
    00:00 +13°C° 0.2 mm 6 mps 747 mmHg 94%
    01:00 +11°C° 0.1 mm 6 mps 746 mmHg 94%
    02:00 +11°C° 0.1 mm 6 mps 746 mmHg 94%
    03:00 +11°C° 0.1 mm 6 mps 746 mmHg 94%
    04:00 +11°C° 0.6 mm 6 mps 746 mmHg 94%
    05:00 +13°C° 0.6 mm 6 mps 746 mmHg 94%
    06:00 +13°C° 0.6 mm 6 mps 746 mmHg 94%
    07:00 +14°C° 0.1 mm 6 mps 746 mmHg 93%
    08:00 +14°C° 0.1 mm 6 mps 747 mmHg 92%
    09:00 +15°C° 0.1 mm 6 mps 747 mmHg 91%
    10:00 +15°C° 0.5 mm 6 mps 747 mmHg 90%
    11:00 +15°C° 0.5 mm 6 mps 748 mmHg 90%
    12:00 +16°C° 0.5 mm 6 mps 748 mmHg 89%
    13:00 +15°C° 0.6 mm 5 mps 748 mmHg 90%
    14:00 +15°C° 0.6 mm 5 mps 749 mmHg 90%
    15:00 +15°C° 0.6 mm 4 mps 749 mmHg 91%
    16:00 +15°C° 0.5 mm 5 mps 750 mmHg 90%
    17:00 +15°C° 0.5 mm 5 mps 750 mmHg 90%
    18:00 +15°C° 0.5 mm 6 mps 751 mmHg 89%
    19:00 +14°C° 0.2 mm 5 mps 751 mmHg 91%
    20:00 +13°C° 0.2 mm 4 mps 752 mmHg 93%
    21:00 +12°C° 0.2 mm 2 mps 753 mmHg 95%
    22:00 +11°C° 0 mm 3 mps 753 mmHg 95%
    23:00 +10°C° 0 mm 3 mps 754 mmHg 95%

    31 May, Friday

    Time Temperature Precipitation Wind Pressure Humidity
    00:00 +10°C° 0 mm 3 mps 754 mmHg 95%
    01:00 +9°C° 0 mm 3 mps 755 mmHg 94%
    02:00 +9°C° 0 mm 3 mps 755 mmHg 94%
    03:00 +9°C° 0 mm 3 mps 756 mmHg 94%
    04:00 +9°C° 0 mm 3 mps 756 mmHg 93%
    05:00 +9°C° 0 mm 3 mps 757 mmHg 93%
    06:00 +9°C° 0 mm 3 mps 757 mmHg 92%
    07:00 +10°C° 0 mm 4 mps 758 mmHg 89%
    08:00 +10°C° 0 mm 4 mps 758 mmHg 86%
    09:00 +11°C° 0 mm 4 mps 758 mmHg 83%
    10:00 +12°C° 0 mm 4 mps 759 mmHg 81%
    11:00 +13°C° 0 mm 4 mps 759 mmHg 79%
    12:00 +14°C° 0 mm 4 mps 759 mmHg 78%
    13:00 +14°C° 0 mm 4 mps 759 mmHg 78%
    14:00 +14°C° 0 mm 4 mps 759 mmHg 79%
    15:00 +14°C° 0 mm 4 mps 759 mmHg 80%
    16:00 +14°C° 0.1 mm 4 mps 759 mmHg 82%
    17:00 +14°C° 0.1 mm 4 mps 759 mmHg 85%
    18:00 +13°C° 0.1 mm 3 mps 759 mmHg 87%
    19:00 +13°C° 0.2 mm 4 mps 759 mmHg 89%
    20:00 +13°C° 0.2 mm 4 mps 759 mmHg 92%
    21:00 +12°C° 0.2 mm 4 mps 759 mmHg 94%
    22:00 +13°C° 0.1 mm 4 mps 759 mmHg 95%
    23:00 +13°C° 0.1 mm 4 mps 759 mmHg 96%
    Show more